EW7735 Weather Reports


time (UTC)temp
F
wind
direction
speed
knots
gust
knots
rain 1hr
in
rain 24hr
in
rain mn
in
humidity
%
barometer
mb
20260505230059 52 1 5.2 23.5 0.00 0.00 0.00 73 1008.6
20260505224502 53 1 7.0 18.2 0.00 0.00 0.00 73 1008.3
20260505223016 53 1 6.1 23.5 0.00 0.00 0.00 72 1008.3
20260505221626 54 1 9.6 17.4 0.00 0.00 0.00 72 1007.5
20260505220107 54 1 5.2 15.6 0.00 0.00 0.00 72 1007.8
20260505214629 54 1 7.0 18.2 0.00 0.00 0.00 72 1007.8
20260505213026 54 1 4.3 13.9 0.00 0.00 0.00 73 1007.7
20260505211549 54 1 6.1 20.0 0.00 0.00 0.00 74 1007.7
20260505210010 54 1 6.1 17.4 0.00 0.00 0.00 75 1007.2
20260505204512 54 1 5.2 13.0 0.00 0.00 0.00 75 1007.5
20260505203016 54 1 7.8 19.1 0.00 0.00 0.00 76 1007.6
20260505201503 54 1 6.1 19.1 0.00 0.00 0.00 77 1007.1
20260505200059 54 1 7.0 18.2 0.00 0.00 0.00 78 1007.1
20260505194516 54 1 7.8 16.5 0.00 0.00 0.00 78 1007.2
20260505193107 55 1 6.1 17.4 0.00 0.00 0.00 78 1007.3
20260505191633 55 1 7.8 21.7 0.00 0.00 0.00 78 1006.7
20260505190009 55 1 10.4 21.7 0.00 0.00 0.00 79 1006.5
20260505184505 55 1 6.1 16.5 0.00 0.00 0.00 81 1006.6
20260505183059 55 1 6.1 15.6 0.00 0.00 0.00 82 1006.6
20260505181554 55 1 7.0 17.4 0.00 0.00 0.00 83 1006.6
20260505180015 55 1 6.1 19.1 0.00 0.00 0.00 84 1006.4
20260505174631 55 1 7.0 13.9 0.00 0.00 0.00 84 1005.8
20260505173116 55 1 6.1 13.0 0.00 0.00 0.00 85 1005.6
20260505171615 55 1 6.1 19.1 0.00 0.00 0.00 86 1005.7
20260505170042 55 1 7.0 14.8 0.00 0.00 0.00 86 1005.1
20260505164518 56 1 5.2 20.9 0.00 0.00 0.00 86 1005.0
20260505163016 56 1 8.7 17.4 0.00 0.00 0.00 86 1004.7
20260505161502 56 1 7.0 14.8 0.00 0.00 0.00 86 1004.8
20260505160116 57 1 5.2 20.0 0.00 0.00 0.00 86 1004.5
20260505153056 59 1 6.1 16.5 0.00 0.00 0.00 85 1004.0
20260505151602 60 1 7.0 14.8 0.00 0.00 0.00 84 1003.9
20260505150126 64 1 4.3 13.9 0.00 0.00 0.00 83 1003.4
20260505130108 66 173 0.9 12.2 0.00 0.00 0.00 84 1002.1
20260505124554 66 1 2.6 8.7 0.00 0.00 0.00 84 1002.3
20260505123025 65 1 1.7 8.7 0.00 0.00 0.00 84 1002.4
20260505121508 65 1 2.6 9.6 0.00 0.00 0.00 85 1002.0
20260505120058 65 1 0.9 7.8 0.00 0.00 0.00 86 1002.2
20260505114548 65 1 3.5 8.7 0.00 0.00 0.00 85 1002.0
20260505113024 65 1 0.9 8.7 0.00 0.00 0.00 85 1001.9
20260505111506 65 1 1.7 8.7 0.00 0.00 0.00 85 1002.0
20260505110128 65 1 1.7 7.8 0.00 0.00 0.00 85 1001.8
20260505101505 65 1 2.6 7.0 0.00 0.00 0.00 86 1001.0
20260505100023 65 1 5.2 10.4 0.00 0.00 0.00 86 1001.0
20260505094630 65 1 3.5 8.7 0.00 0.00 0.00 85 1000.9
20260505093107 65 1 2.6 10.4 0.00 0.00 0.00 84 1000.9
20260505091606 65 1 3.5 13.0 0.00 0.00 0.00 82 1000.9
20260505090010 66 1 1.7 11.3 0.00 0.00 0.00 81 1000.9
20260505084508 67 1 3.5 8.7 0.00 0.00 0.00 79 1000.9
20260505083012 68 1 2.6 9.6 0.00 0.00 0.00 78 1001.1
20260505081625 68 1 0.9 7.8 0.00 0.00 0.00 78 1001.0
20260505080056 68 1 3.5 7.8 0.00 0.00 0.00 77 1001.3
20260505074630 68 1 1.7 7.0 0.00 0.00 0.00 77 1001.3
20260505073012 67 1 2.6 7.0 0.00 0.00 0.00 77 1001.6
20260505071551 67 1 0.9 4.3 0.00 0.00 0.00 77 1002.0
20260505070015 68 1 2.6 8.7 0.00 0.00 0.00 76 1002.0
20260505064630 68 1 0.9 7.0 0.00 0.00 0.00 75 1002.1
20260505063111 69 1 2.6 4.3 0.00 0.00 0.00 73 1002.6
20260505061551 69 1 0.0 5.2 0.00 0.00 0.00 73 1002.4
20260505060113 69 1 0.9 2.6 0.00 0.00 0.00 73 1002.2
20260505054631 70 1 0.0 3.5 0.00 0.00 0.00 72 1001.9
20260505053112 70 1 2.6 11.3 0.00 0.00 0.00 71 1001.5
20260505051631 70 1 5.2 11.3 0.00 0.00 0.00 71 1001.4
20260505041634 70 1 4.3 11.3 0.00 0.00 0.00 69 1001.3
20260505040110 70 1 6.1 13.0 0.00 0.00 0.00 67 1001.6
20260505034502 71 1 5.2 12.2 0.00 0.00 0.00 67 1001.7
20260505033014 71 1 7.0 13.9 0.00 0.00 0.00 65 1002.1
20260505031555 71 1 6.1 14.8 0.00 0.00 0.00 64 1002.1
20260505030124 72 175 7.0 16.5 0.00 0.00 0.00 63 1002.3
20260505024607 72 164 5.2 13.9 0.00 0.00 0.00 62 1002.5
20260505023120 73 160 4.3 12.2 0.00 0.00 0.00 62 1002.8
20260505021633 73 158 3.5 16.5 0.00 0.00 0.00 61 1002.4
20260505020129 73 147 6.1 13.0 0.00 0.00 0.00 61 1002.3
20260505014624 74 162 7.0 12.2 0.00 0.00 0.00 61 1002.3
20260505013111 74 151 5.2 15.6 0.00 0.00 0.00 60 1002.3
20260505011550 75 177 4.3 16.5 0.00 0.00 0.00 60 1002.1
20260505010026 75 144 7.0 13.9 0.00 0.00 0.00 59 1002.1
20260505004556 76 145 7.0 13.9 0.00 0.00 0.00 59 1002.2
20260505003100 76 177 6.1 13.0 0.00 0.00 0.00 58 1002.3
20260505001624 76 182 6.1 13.9 0.00 0.00 0.00 58 1002.2
20260505000013 76 138 5.2 13.0 0.00 0.00 0.00 58 1002.6
20260504234552 77 224 6.1 15.6 0.00 0.00 0.00 58 1002.5
20260504233111 77 185 7.8 20.9 0.00 0.00 0.00 57 1002.6
20260504231625 77 145 7.8 15.6 0.00 0.00 0.00 56 1002.6